GSAT0208 (GALILEO 11)

Last updated on Wed May 14 2025 00:02:30 GMT+0000 (Coordinated Universal Time)

1 41175U 15079B 25133.20834435 .00000046 00000+0 00000+0 0 9991 2 41175 55.5902 112.2416 0004991 321.1825 38.7474 1.70474148 58370
UTC large
Height (km)
Speed (km/s)
/
Latitude / Longitude
Inclination (degrees)
Orbital Period (minutes)
Azimuth
Elevation
Range (km)
Doppler Factor

Next 0 passes for location: London (51.5072 / 0.1276)

Sorry there are no passes over London.